GFSFLT1_925_thetae_084.txt.gz
Theta_e
321 320 318 319 322 334 343 342 340 339 338 335 331 331 332 333 333 333 332 332 332 332 331 330 330 328 327 327 328 328 327 326
320 320 318 321 326 339 343 341 339 339 335 332 332 330 330 330 330 330 331 331 331 331 330 329 328 328 327 328 328 327 326 325
321 321 321 326 334 338 343 340 339 338 335 332 333 331 331 329 329 328 329 330 330 330 329 328 327 326 327 327 326 326 326 325
321 322 322 329 334 339 342 340 339 337 334 333 331 331 330 329 329 329 329 328 328 329 329 328 327 326 326 326 325 325 326 325
321 322 322 332 333 339 340 340 338 337 334 332 331 330 330 329 329 329 329 330 329 329 327 327 327 326 326 326 325 325 325 324
321 322 322 332 333 339 340 339 337 336 334 332 331 330 329 329 330 329 329 328 329 329 328 326 326 326 325 325 325 325 324 324
320 322 321 329 332 338 339 338 336 335 334 332 331 330 329 328 329 328 327 326 325 326 326 326 324 325 325 325 323 323 324 324
330 329 322 323 333 338 339 338 336 335 334 334 331 331 329 328 328 328 325 325 323 322 323 325 324 324 324 324 323 324 323 323
324 325 323 327 335 338 338 337 336 335 335 333 331 329 327 328 329 328 326 325 325 322 323 324 323 324 324 323 320 323 322 323
319 320 323 328 334 338 337 337 335 335 334 332 330 328 327 329 328 327 326 325 324 323 323 323 324 324 323 323 322 323 322 321
313 313 317 334 336 336 335 335 333 334 333 332 329 328 326 327 327 328 328 326 325 324 323 323 322 323 324 324 323 323 323 323
307 308 309 315 330 330 329 330 330 331 331 330 328 326 326 327 327 326 325 325 325 325 323 322 322 323 323 323 323 323 323 322
303 303 304 306 310 319 327 327 328 328 328 327 326 325 327 327 326 325 325 324 324 323 323 323 322 322 322 322 322 321 321 321
301 301 301 302 303 305 308 318 326 326 325 325 324 323 324 325 325 324 324 323 321 321 323 322 321 321 321 320 320 320 319 318
299 298 298 298 299 300 301 304 314 320 320 320 320 321 322 321 324 323 323 322 320 320 322 321 320 320 320 320 320 319 319 318
298 297 296 295 296 297 299 299 302 307 310 311 310 314 315 317 317 316 319 320 319 319 317 316 314 315 316 318 319 319 321 320
297 295 294 294 293 295 296 298 298 300 302 303 305 307 310 308 306 309 311 309 308 309 307 305 304 303 305 311 314 314 315 316
296 294 293 292 292 292 293 293 296 298 299 301 302 302 300 300 300 299 299 299 299 298 298 298 298 299 303 305 310 310 307 304
294 294 292 291 291 291 291 291 292 293 295 297 299 299 298 296 296 294 293 293 293 291 291 292 295 297 299 301 303 302 299 295

GFSFLT1_925_thetae_087.txt.gz
Theta_e
316 317 318 319 318 323 342 342 341 340 337 337 336 334 334 336 335 333 333 334 333 333 332 331 331 330 330 329 327 327 327 328
317 318 318 319 318 335 341 340 339 338 338 336 334 332 332 335 333 332 332 332 333 332 331 331 330 329 329 329 327 327 326 327
317 317 318 318 319 338 341 340 339 338 336 335 332 330 330 331 332 330 331 331 331 331 331 330 329 328 328 328 326 327 327 326
315 317 317 319 330 340 339 339 338 337 336 335 332 329 329 329 329 328 327 328 330 330 330 329 328 327 327 327 327 326 326 325
314 316 316 328 340 340 339 338 337 337 336 334 332 330 329 329 327 327 327 328 329 330 330 328 328 327 327 326 327 326 326 324
315 314 316 328 338 340 338 338 337 336 334 332 331 330 330 329 328 328 329 329 328 328 328 328 328 327 327 326 326 325 325 324
320 320 321 322 337 340 338 338 337 336 334 332 330 330 329 328 328 329 329 328 329 329 328 328 326 327 326 326 326 325 325 324
316 316 316 319 323 338 337 336 335 335 334 332 330 329 329 328 329 329 328 327 326 329 327 327 327 326 326 326 325 324 324 324
312 312 312 314 321 337 337 335 334 334 333 331 331 329 329 328 328 328 326 325 325 324 323 324 325 324 324 325 325 324 324 324
309 310 309 313 330 336 336 335 334 333 333 333 331 330 328 328 328 327 326 325 325 323 322 322 324 323 323 324 324 323 323 323
306 306 307 309 314 325 331 334 333 333 333 332 330 328 327 328 328 327 326 325 324 323 322 323 324 324 324 324 323 323 322 323
303 303 303 305 307 311 319 329 331 333 333 330 328 327 326 328 327 327 327 325 324 323 322 323 323 323 323 323 322 321 323 322
301 300 299 301 302 303 306 315 327 329 330 328 327 326 325 326 327 327 326 325 325 324 323 322 322 322 323 323 322 322 321 321
299 298 297 297 299 300 302 304 320 326 326 325 325 325 326 327 326 325 325 325 324 324 323 322 322 322 322 322 323 322 322 322
298 297 296 295 296 296 299 300 305 316 320 321 321 321 323 324 324 324 323 322 322 322 322 322 321 320 320 320 321 321 321 321
296 296 295 294 294 295 295 298 300 306 310 315 313 314 318 320 321 321 321 320 318 315 315 314 315 317 317 318 319 319 319 318
295 295 294 293 293 293 293 294 297 301 303 304 306 311 308 309 310 311 313 311 309 309 307 307 309 310 313 315 315 317 314 312
294 293 293 292 291 291 291 293 294 295 299 300 299 299 300 300 299 298 298 298 299 298 299 301 300 301 306 310 312 309 305 302
292 292 291 290 290 290 292 291 292 293 294 296 297 296 295 295 295 293 292 292 292 292 291 293 295 294 297 300 304 301 297 294

GFSFLT1_925_thetae_090.txt.gz
Theta_e
312 314 314 314 315 314 331 340 343 341 339 340 339 340 339 338 338 337 336 335 335 334 333 332 331 329 329 331 329 329 328 328
310 312 314 315 315 316 334 341 341 340 338 337 336 337 338 337 336 336 335 334 334 334 332 333 332 331 329 330 329 328 328 327
312 311 313 316 314 319 339 340 340 339 338 336 333 334 332 331 335 334 334 334 332 333 333 332 331 330 327 329 328 327 327 327
313 312 311 315 314 334 339 339 338 337 336 334 333 331 331 331 332 333 333 332 333 332 332 331 329 326 328 327 327 327 327 326
315 316 317 317 316 330 338 338 337 336 335 333 332 330 328 329 329 331 331 331 331 331 331 329 329 328 327 326 326 327 326 325
315 316 316 318 329 336 338 338 336 333 334 334 331 328 327 327 328 330 327 326 328 329 330 330 329 328 326 325 326 326 326 324
312 313 313 313 323 338 338 337 334 333 333 332 331 328 328 328 328 327 327 327 328 328 330 329 327 327 327 326 326 326 326 325
310 311 312 312 315 323 337 336 333 333 332 331 330 330 329 328 327 327 326 328 328 328 328 328 327 327 326 326 326 326 325 324
308 309 308 310 314 325 336 335 333 331 331 329 330 330 329 328 327 327 327 327 328 328 327 327 327 326 326 326 326 326 325 324
306 306 305 307 310 317 334 335 333 330 329 330 330 330 328 328 327 328 328 327 327 326 326 326 325 325 326 325 325 325 324 324
303 302 302 304 306 309 321 331 332 330 329 330 329 329 328 327 327 328 327 326 325 325 324 322 322 323 323 324 324 324 324 323
300 300 300 301 303 305 310 318 330 330 330 329 329 328 328 327 328 327 327 326 324 323 322 322 323 324 323 323 323 324 323 323
299 298 298 298 299 301 304 309 315 329 328 329 327 328 328 327 327 327 326 325 324 323 322 322 323 323 323 323 323 323 323 322
297 297 296 296 296 297 299 303 306 321 326 326 326 326 327 326 326 326 327 325 324 323 322 322 322 322 322 322 322 322 322 321
296 295 295 295 295 295 296 298 302 309 317 322 324 325 325 326 325 325 324 324 324 323 322 322 321 321 321 321 322 321 322 322
295 294 294 293 294 294 294 296 298 303 308 309 312 320 323 323 323 322 321 321 318 317 317 318 317 318 319 319 320 321 321 319
294 293 292 292 292 293 294 294 295 299 300 300 302 307 312 313 315 313 314 312 310 310 308 307 309 312 312 317 319 318 315 315
293 292 291 290 290 291 292 293 294 295 297 297 297 297 298 297 300 302 302 301 301 300 300 302 300 301 307 311 315 311 307 305
292 291 290 290 289 289 291 292 293 293 293 294 294 294 293 292 292 292 293 294 294 293 293 293 294 293 298 303 304 300 298 296

GFSFLT1_925_thetae_093.txt.gz
Theta_e
308 310 310 311 312 312 317 333 341 342 342 340 341 341 340 341 341 339 337 337 336 335 334 332 331 331 327 327 329 328 328 327
315 311 311 311 312 311 313 336 340 341 339 338 337 338 339 340 341 341 338 337 335 335 334 332 331 329 327 328 329 329 328 328
316 315 315 310 311 312 314 333 337 340 339 338 337 338 337 338 339 339 337 336 335 335 334 332 333 329 328 327 328 326 327 328
313 314 314 314 316 312 320 331 336 338 338 336 335 336 335 334 336 336 334 335 334 334 333 330 331 328 329 329 327 326 327 327
312 312 313 312 313 317 323 332 336 338 337 335 333 333 333 333 334 334 333 334 334 333 332 332 330 330 328 328 326 326 326 326
310 312 311 311 312 315 326 335 336 337 335 334 332 332 331 330 331 330 333 333 332 332 332 331 331 329 328 327 326 326 326 325
309 308 309 308 310 314 330 336 336 335 333 332 332 330 328 328 328 328 330 331 331 331 330 329 329 328 328 326 326 326 325 326
307 306 306 306 308 311 322 337 336 333 332 330 331 329 328 328 326 326 327 326 327 328 327 328 327 328 327 327 326 325 325 326
305 304 303 304 306 308 316 336 334 332 331 331 329 329 327 327 326 326 326 325 325 326 328 328 328 328 327 326 326 326 325 326
303 302 301 302 303 305 309 330 332 332 331 329 328 327 328 326 326 326 325 326 327 328 327 327 327 327 326 326 326 326 326 325
300 300 299 301 301 303 306 315 332 330 329 329 327 327 327 328 327 326 326 326 326 327 327 326 325 325 324 324 324 325 325 325
298 298 297 298 300 300 303 308 325 329 328 328 327 327 327 328 327 326 327 327 326 326 325 323 324 323 323 322 323 323 324 324
297 296 296 296 297 299 300 303 309 323 329 328 327 327 326 326 326 327 327 326 325 324 323 321 321 322 323 323 323 323 323 323
296 295 295 294 295 297 298 299 303 309 325 326 326 326 326 326 326 326 325 324 324 323 323 322 322 322 323 323 322 322 323 323
295 294 293 293 293 294 296 297 300 304 309 320 323 326 326 326 326 325 324 324 323 322 322 322 321 321 321 321 322 322 322 322
294 293 292 292 292 293 294 295 297 300 301 305 309 309 318 323 324 324 323 322 321 320 319 318 317 317 318 320 321 321 320 321
293 292 292 291 291 291 292 294 295 297 296 297 298 301 301 308 311 311 314 312 313 314 313 312 310 311 312 318 319 319 318 318
292 292 291 290 290 290 291 291 292 294 295 294 293 293 293 294 297 299 300 301 303 304 303 304 302 301 304 311 316 315 311 308
291 290 289 289 289 289 289 289 290 290 291 292 292 292 291 291 291 291 291 293 294 293 295 296 295 292 295 302 305 305 302 300

GFSFLT1_925_thetae_096.txt.gz
Theta_e
314 315 315 316 315 308 310 312 327 336 340 339 337 336 335 335 334 334 334 336 334 334 333 332 329 328 328 329 327 328 328 328
313 313 313 314 315 314 308 310 322 338 339 338 337 336 336 336 336 335 335 335 334 335 334 332 328 328 328 328 327 327 327 327
313 312 312 313 312 313 315 308 317 335 338 338 338 337 337 337 336 336 337 336 335 336 334 332 329 328 328 327 326 328 327 327
311 310 311 311 310 310 312 316 321 331 338 338 337 336 335 334 333 336 335 337 337 336 334 332 330 328 327 328 328 328 328 327
309 309 309 309 309 309 310 314 318 334 337 337 335 336 334 334 333 332 332 333 336 336 334 334 333 329 328 329 328 327 327 326
307 307 306 306 307 307 310 314 321 333 337 336 335 335 334 333 332 321 321 331 334 334 334 333 332 329 327 329 328 327 326 325
306 305 304 304 305 305 307 313 325 335 336 335 333 333 332 332 332 329 329 331 332 333 333 332 330 330 328 329 328 327 326 325
304 303 302 302 303 303 305 309 319 335 334 333 332 332 330 330 331 331 329 329 330 331 330 330 330 331 329 328 327 326 326 326
302 301 300 300 301 302 303 306 312 334 333 333 331 331 328 329 328 327 327 328 329 328 329 328 330 327 326 327 326 326 325 326
300 299 298 298 299 301 302 304 310 331 332 330 329 330 329 327 327 327 327 327 327 327 325 325 327 326 326 327 327 326 325 325
298 297 297 297 297 298 301 302 308 330 330 329 328 327 328 327 327 325 326 325 325 324 324 324 326 327 327 326 326 325 325 325
296 295 295 295 296 297 298 301 305 313 328 327 328 327 327 326 326 324 325 325 325 327 327 326 326 326 325 325 324 324 324 325
295 294 294 294 294 295 296 299 302 306 319 327 326 326 327 327 325 325 325 325 325 326 326 326 323 322 323 322 322 322 322 323
294 293 293 293 293 293 295 296 299 302 309 321 325 326 326 325 325 326 325 325 325 324 324 321 320 321 322 322 323 323 323 323
294 293 293 292 292 292 293 294 296 298 299 304 308 313 325 325 324 324 325 324 323 322 321 319 319 321 321 321 322 322 322 322
293 293 292 291 291 291 291 292 294 296 296 296 296 300 309 313 321 323 323 322 320 318 317 316 317 319 320 320 320 320 321 321
292 292 291 290 290 290 290 291 291 292 294 294 295 297 298 298 299 313 315 313 312 312 311 311 312 312 314 318 319 319 318 318
291 291 290 289 289 289 289 289 290 290 291 291 292 294 293 294 293 295 299 300 303 303 302 302 301 302 307 312 315 314 310 307
290 290 289 288 288 288 287 287 288 288 289 289 290 291 292 295 292 289 290 292 292 292 292 293 294 293 298 305 306 303 300 298

GFSFLT1_925_thetae_099.txt.gz
Theta_e
315 314 314 314 315 316 316 316 309 316 332 335 337 336 334 333 332 333 335 335 336 334 334 332 331 330 330 328 328 328 328 329
314 313 313 313 314 314 315 315 316 313 332 335 334 334 335 334 333 332 334 333 335 334 334 331 331 330 330 328 327 326 328 328
314 312 312 311 311 311 312 313 314 314 325 333 334 334 335 335 334 333 333 332 333 335 334 332 331 330 329 328 328 328 328 328
313 311 310 309 309 309 310 311 312 314 317 332 335 335 336 334 335 334 333 333 333 334 334 331 331 330 328 328 328 327 327 327
311 309 308 307 307 306 306 308 311 314 318 329 334 333 333 334 335 334 334 333 332 331 332 332 331 329 328 328 328 327 328 327
308 307 306 305 304 303 304 305 308 313 320 326 335 334 334 334 335 334 333 332 333 327 321 329 331 330 328 328 328 327 328 327
306 304 303 302 301 301 302 304 306 310 321 327 334 334 334 334 333 333 334 331 325 322 323 329 331 329 328 328 328 328 327 327
303 303 301 300 299 299 300 302 304 308 316 331 335 333 333 334 333 332 330 327 323 321 323 331 331 329 327 327 327 327 327 326
302 300 299 298 298 298 299 301 303 306 317 333 334 333 332 333 333 328 328 327 327 327 330 331 331 329 329 326 326 327 327 326
300 299 298 297 297 297 297 299 302 306 315 332 332 331 330 330 333 332 329 329 329 329 330 330 330 329 327 325 325 326 326 326
299 298 296 295 295 296 296 298 300 305 311 331 330 329 329 328 327 327 328 328 327 327 328 329 328 327 328 326 325 325 326 325
298 296 295 294 294 294 295 296 299 303 305 325 327 326 326 326 327 327 327 326 322 325 326 326 325 325 325 326 326 326 325 325
297 296 294 293 293 293 294 295 296 300 301 311 325 325 325 325 326 325 325 323 325 324 322 322 324 325 326 326 326 325 325 324
296 295 294 293 292 292 292 293 294 297 298 301 307 315 322 324 324 323 324 324 324 322 322 323 325 325 324 324 322 322 322 322
295 294 293 292 291 291 291 291 292 293 296 297 298 300 306 314 324 323 323 324 323 322 323 323 322 321 321 321 321 322 322 322
293 293 292 291 290 290 290 290 290 291 293 294 295 295 299 302 312 318 321 323 323 322 320 319 318 319 319 319 320 321 321 321
292 291 291 290 289 289 288 289 289 290 290 291 293 293 295 297 296 307 300 312 314 315 314 314 313 313 315 318 319 318 317 315
291 290 290 289 288 288 288 287 287 288 289 289 290 292 292 293 295 293 295 292 302 301 300 302 302 304 305 312 316 315 311 307
290 289 288 288 287 286 287 286 286 286 286 287 287 288 290 291 294 294 292 290 289 291 292 293 295 295 298 301 307 305 302 300

GFSFLT1_925_thetae_102.txt.gz
Theta_e
319 318 318 317 318 318 318 320 321 321 320 323 332 334 339 339 338 337 337 337 338 337 336 334 334 334 334 333 331 331 331 332
318 317 317 317 317 316 316 317 318 320 320 318 329 333 337 335 337 338 337 337 337 336 335 333 333 332 333 331 330 329 330 330
318 316 316 316 315 315 315 315 316 316 318 319 322 331 332 333 335 338 337 336 336 335 334 333 332 332 332 331 331 328 329 329
317 315 314 313 313 312 312 312 313 314 316 318 320 328 332 334 335 337 337 336 335 334 333 332 331 331 331 333 330 329 329 329
315 314 312 311 310 308 307 308 309 310 313 316 321 323 332 333 333 335 335 335 334 332 332 332 332 330 331 331 330 330 330 329
313 311 309 308 307 305 303 304 305 307 308 312 318 322 332 332 333 334 335 334 333 332 331 331 331 331 331 331 331 331 330 329
311 309 308 307 306 304 301 301 302 304 306 309 315 324 327 333 333 334 334 334 333 332 332 332 331 330 330 330 330 331 331 329
310 308 307 305 304 302 300 299 300 301 304 307 314 324 326 335 333 335 333 332 333 332 331 329 328 324 326 329 330 330 330 329
308 306 305 304 302 301 299 297 298 299 302 307 313 328 329 334 333 334 333 332 333 334 329 326 323 321 324 329 330 331 330 329
306 305 303 302 301 299 297 296 297 298 302 305 313 334 334 335 333 333 333 334 335 331 328 327 325 327 329 329 330 330 328 328
305 303 301 300 299 298 295 295 296 297 300 303 312 331 333 332 332 332 331 332 331 330 328 328 328 329 329 329 330 328 327 327
303 302 300 299 298 297 294 294 294 295 298 301 307 328 330 331 331 331 331 330 330 328 327 328 328 328 327 327 327 328 327 326
301 300 299 298 297 295 293 292 293 293 295 299 302 309 318 327 328 328 329 328 328 328 328 326 326 327 327 326 327 326 326 326
300 300 299 297 296 294 291 291 291 291 293 296 298 299 303 313 324 327 326 327 327 325 325 324 325 326 327 325 326 326 326 325
298 298 298 296 295 294 290 289 290 291 291 294 295 296 297 300 310 322 324 324 324 325 326 325 325 324 324 325 324 324 324 324
296 296 295 294 293 292 291 289 289 289 290 291 292 294 295 295 304 306 315 323 323 323 322 322 322 322 322 322 322 322 322 323
294 294 293 293 291 290 290 290 288 288 288 289 290 291 293 293 296 298 296 304 306 312 316 315 315 314 316 319 320 319 320 319
292 292 291 290 289 289 289 289 289 287 287 287 288 289 290 291 292 295 293 293 293 292 299 306 304 305 309 315 314 313 311 308
290 289 289 288 288 288 288 288 288 288 286 286 286 287 287 288 290 290 293 292 291 291 291 292 294 294 299 304 305 304 300 298

GFSFLT1_925_thetae_105.txt.gz
Theta_e
320 319 320 320 320 320 320 320 321 322 323 324 323 324 334 337 338 340 341 341 340 341 340 339 338 337 338 337 336 336 336 336
319 319 319 319 319 319 319 319 319 320 320 322 322 321 326 333 336 337 340 341 341 341 340 338 337 336 338 336 334 335 334 334
319 318 318 318 317 317 317 316 317 317 318 319 321 322 322 328 333 335 337 340 341 339 339 338 337 336 337 336 334 333 333 332
318 317 317 316 315 314 314 313 313 315 316 316 318 321 322 324 333 334 335 338 339 339 338 338 336 335 335 334 333 332 331 331
317 317 315 314 313 312 312 311 311 311 313 314 315 319 322 322 327 333 334 335 338 339 338 336 335 334 334 334 333 332 332 331
316 315 313 312 312 311 310 309 308 309 309 310 310 313 318 323 324 332 334 336 337 337 337 336 334 332 333 334 333 332 332 331
315 313 311 311 310 309 308 307 306 306 304 304 306 309 313 320 325 330 334 337 336 337 335 335 333 333 332 333 326 333 333 332
313 311 310 309 308 307 306 304 303 303 301 302 304 307 310 316 323 328 335 336 335 334 335 333 333 333 327 320 318 331 333 333
311 310 308 307 306 305 303 302 301 300 299 299 301 305 309 315 322 328 332 336 335 333 333 332 332 332 327 328 332 333 333 333
310 308 306 305 304 303 301 301 300 298 297 297 300 304 310 321 328 329 333 336 335 332 333 332 333 332 332 332 331 331 332 332
308 307 305 304 303 302 300 299 298 296 295 296 299 302 307 324 330 332 333 334 335 334 333 331 329 328 329 329 329 329 331 332
307 306 304 303 302 301 299 297 296 295 294 295 298 300 303 313 330 331 332 333 333 332 332 331 330 328 323 324 325 327 330 331
305 305 303 302 300 299 298 295 295 294 292 293 295 297 299 304 314 325 331 332 332 331 330 330 330 328 328 323 323 324 328 330
303 303 302 300 298 297 297 294 292 292 291 292 293 294 297 298 302 311 327 329 331 330 330 329 330 329 328 326 324 319 327 328
301 301 300 298 297 296 295 294 291 290 290 290 291 292 294 296 297 301 305 321 328 329 329 329 327 328 329 328 328 328 327 327
298 297 297 295 294 293 293 292 292 289 288 289 289 290 291 293 294 295 302 304 315 319 325 325 326 326 327 326 325 325 326 326
295 295 294 293 292 292 292 291 291 289 288 288 288 288 289 290 291 292 297 295 298 300 306 307 313 315 320 324 324 323 323 323
293 292 291 291 290 290 291 290 290 289 288 287 287 287 288 288 289 289 291 291 295 293 292 294 295 303 312 319 320 318 316 313
291 290 290 289 289 289 290 289 288 288 287 287 287 287 287 287 287 286 287 288 289 290 289 289 290 291 297 309 314 309 304 301

GFSFLT1_925_thetae_108.txt.gz
Theta_e
321 320 320 320 321 320 320 320 320 321 321 322 324 324 322 326 337 342 341 342 341 339 343 343 341 339 339 342 341 340 340 339
320 320 320 319 319 319 318 317 317 317 319 320 321 322 324 324 326 336 340 341 341 341 342 342 341 341 339 341 339 339 338 337
320 319 318 318 317 316 315 315 314 314 316 317 318 318 319 321 324 326 334 337 339 340 341 342 340 339 338 339 337 336 336 334
319 318 317 316 315 314 314 313 312 312 313 314 315 316 317 321 321 321 324 336 336 338 341 341 340 335 331 337 336 335 334 335
317 317 315 314 313 312 312 311 310 310 310 310 310 312 313 315 317 322 324 334 336 337 338 340 338 335 336 333 335 334 333 333
316 315 313 312 311 311 310 308 307 306 307 306 305 305 308 311 314 318 322 325 336 336 338 338 338 336 331 335 335 334 332 331
314 312 311 310 309 308 306 305 304 304 304 302 301 302 303 306 309 313 317 324 328 335 335 338 337 336 335 334 327 332 332 332
312 311 309 308 307 306 304 303 303 303 302 300 299 300 301 303 306 309 313 319 327 329 332 337 338 336 333 332 330 332 332 332
310 309 308 307 306 304 303 301 301 300 299 298 297 298 300 303 306 309 312 317 324 328 328 333 335 335 333 333 332 332 331 331
309 308 307 305 304 303 301 299 298 298 297 296 296 298 300 302 304 308 314 318 322 331 334 334 334 334 333 332 328 328 322 322
307 306 305 304 302 301 300 298 296 296 295 295 295 296 298 300 303 307 317 323 329 332 334 333 333 333 332 330 328 328 331 333
305 305 304 302 300 299 298 297 294 293 293 294 294 294 295 298 300 303 307 320 329 332 333 333 332 332 332 332 331 331 331 331
303 303 302 300 299 298 297 295 294 291 291 292 293 292 293 296 297 299 302 307 326 330 332 332 332 331 330 330 331 330 329 328
301 300 299 298 297 296 295 294 293 291 290 290 291 291 291 293 294 295 298 305 316 325 328 330 330 329 329 329 328 327 325 321
298 298 296 295 294 294 294 293 292 291 289 289 289 289 290 290 292 293 294 299 304 311 320 328 328 329 329 326 324 324 322 322
297 295 294 293 292 292 292 292 291 290 289 289 289 289 289 288 289 290 291 293 297 299 301 314 316 323 322 327 327 323 322 320
294 293 292 291 291 291 291 290 290 289 288 288 288 288 288 288 287 287 288 289 291 293 294 296 296 300 312 325 327 327 325 322
291 291 291 290 290 290 290 289 288 288 288 288 288 288 288 288 287 286 285 285 287 288 290 292 291 293 298 307 324 323 322 315
290 289 289 289 288 288 288 288 287 287 287 287 288 288 288 288 288 286 285 284 284 284 285 287 288 289 292 292 296 307 306 301

GFSFLT1_925_thetae_111.txt.gz
Theta_e
318 319 319 319 318 318 317 316 316 316 317 318 319 320 321 323 325 324 329 340 340 341 341 342 342 342 341 341 340 339 340 340
319 318 317 317 316 315 314 314 313 313 313 313 314 316 317 318 320 322 324 329 337 340 342 340 338 340 341 340 341 341 340 340
317 316 316 314 314 313 312 311 311 310 310 310 311 311 314 315 317 318 319 321 323 332 339 340 341 339 340 339 338 339 338 339
315 314 313 312 311 311 309 308 308 307 307 307 307 307 309 310 312 314 318 319 321 322 331 338 340 340 338 338 338 335 335 336
313 311 310 309 309 308 307 306 305 304 304 304 303 303 304 305 306 308 310 314 315 318 323 334 336 339 337 336 335 328 322 328
310 309 308 307 307 305 304 303 303 302 302 301 300 300 300 302 303 305 307 309 312 315 319 326 334 335 335 336 332 323 327 331
309 308 307 306 305 303 302 301 301 300 299 299 299 298 299 300 301 302 304 306 309 312 316 323 331 332 332 334 333 327 330 329
307 306 305 304 303 301 300 298 297 297 298 297 297 297 297 298 300 302 304 306 308 311 315 319 325 331 330 331 332 332 331 331
306 305 303 302 301 300 298 297 295 295 295 295 296 296 296 297 299 301 302 305 308 311 313 319 324 323 326 328 330 330 330 330
305 303 302 301 300 298 297 296 294 293 293 293 294 295 295 295 296 299 302 305 308 313 314 317 323 319 320 328 328 329 329 329
304 302 300 299 298 297 295 294 294 292 291 291 292 293 293 293 295 298 299 301 304 310 318 320 324 323 318 327 329 330 329 325
301 299 298 297 296 295 294 293 293 292 291 291 291 291 291 292 293 294 296 297 300 306 318 326 328 329 328 328 330 329 328 327
298 297 296 295 294 293 293 292 292 291 290 290 290 290 290 291 291 292 293 295 297 301 310 320 329 328 326 328 329 328 327 328
295 294 294 293 293 292 292 291 291 290 290 289 289 289 289 289 289 289 291 292 294 296 300 309 320 327 327 329 329 330 329 329
295 293 292 292 291 291 291 290 289 289 289 289 289 289 289 288 288 287 288 289 290 292 296 300 303 312 322 321 328 329 328 327
293 292 291 290 290 290 290 289 288 288 288 288 288 288 289 288 287 286 286 287 287 289 291 293 295 296 296 305 321 326 326 324
291 291 289 289 289 289 288 288 288 288 288 288 288 288 288 288 287 286 285 285 285 285 287 288 289 290 296 308 316 323 321 320
290 290 288 288 288 288 287 287 287 287 287 287 287 287 288 288 287 287 286 285 284 284 284 285 286 288 292 301 295 300 310 313
289 288 288 288 287 287 287 287 287 287 286 286 287 286 286 287 287 287 287 286 285 284 284 284 285 286 289 294 292 289 288 291

GFSFLT1_925_thetae_114.txt.gz
Theta_e
317 316 315 314 314 314 314 313 312 313 313 314 314 315 316 316 317 319 320 321 324 335 340 339 338 339 340 341 341 341 340 339
315 313 312 312 311 311 311 311 310 310 309 309 310 310 311 313 314 315 316 317 319 321 322 337 340 339 339 338 338 339 339 339
313 311 309 308 308 308 307 307 307 306 305 305 305 306 309 310 311 313 314 314 315 317 319 322 331 339 339 338 337 336 337 337
311 309 307 306 305 304 304 304 304 303 303 302 302 304 304 306 308 310 313 313 313 313 314 315 320 330 338 339 337 336 334 334
309 307 305 303 303 302 302 301 301 301 300 300 299 299 299 300 301 302 305 309 311 311 311 313 315 318 326 336 337 336 335 328
307 305 303 302 301 300 299 298 298 298 298 298 298 298 297 298 299 300 302 303 305 309 310 311 313 316 318 332 336 335 334 326
305 303 302 301 299 299 297 296 295 295 296 296 296 296 296 297 298 300 301 302 304 306 308 309 312 315 318 327 334 333 331 327
303 302 300 299 298 296 296 295 294 293 293 294 295 295 295 296 297 298 299 300 302 304 306 308 311 313 317 323 331 331 329 326
302 300 299 298 296 295 294 294 294 292 292 292 293 294 294 294 294 295 297 299 301 302 304 306 308 312 314 319 328 330 329 327
300 299 297 296 296 294 293 293 293 292 291 291 292 292 292 293 293 294 295 296 298 299 301 303 307 313 315 318 326 328 329 327
298 297 295 294 294 294 293 292 292 291 291 290 291 291 291 291 292 292 293 294 295 297 299 301 305 312 317 318 321 326 327 325
296 295 294 293 293 293 292 291 290 290 290 290 290 290 290 290 290 290 290 291 293 294 296 299 304 309 321 321 320 324 327 326
294 293 292 292 292 292 291 289 289 289 289 289 289 289 289 289 289 288 288 289 290 291 293 295 299 305 318 326 324 323 326 326
293 292 291 291 291 290 290 289 289 288 289 289 289 289 289 288 287 287 286 287 287 289 290 292 293 296 302 314 325 326 324 326
292 291 290 290 290 289 288 288 288 288 288 288 288 288 288 288 287 286 286 286 286 286 287 289 290 292 294 301 315 322 324 326
291 289 289 289 289 288 287 287 288 287 287 288 287 287 288 287 287 287 286 285 285 285 285 286 287 290 290 295 306 315 318 318
290 289 288 288 288 287 287 287 287 286 286 287 286 286 286 287 287 286 285 285 285 285 285 285 286 287 289 291 296 309 310 304
289 289 288 288 288 287 287 287 286 286 285 285 286 285 285 285 285 285 285 284 283 283 283 285 286 286 287 289 291 293 293 292
288 288 288 288 288 287 287 287 286 285 284 284 284 283 283 284 284 284 284 284 283 283 283 283 285 286 285 285 288 290 292 290

GFSFLT1_925_thetae_117.txt.gz
Theta_e
313 312 311 311 310 310 310 310 310 311 311 311 312 313 312 312 312 313 314 314 315 317 319 322 332 338 337 334 337 336 334 338
311 310 308 307 306 306 306 306 306 308 309 309 308 308 310 311 312 311 312 313 314 314 315 316 319 329 337 337 336 334 334 336
309 306 304 303 303 302 302 302 302 302 303 304 306 307 306 308 309 310 309 310 311 312 313 314 314 316 325 334 337 336 336 336
308 304 302 301 300 300 299 300 299 300 300 302 305 306 306 305 306 307 307 308 308 308 309 311 312 313 315 320 332 335 335 335
305 302 301 300 298 297 296 297 297 298 299 299 298 298 298 298 299 300 303 304 306 306 307 307 309 311 313 315 318 329 334 331
303 302 299 298 297 296 295 295 296 296 296 296 296 297 297 297 298 298 299 301 303 306 306 306 308 310 312 314 316 319 332 333
302 300 298 296 295 295 295 294 293 294 294 294 295 295 295 296 296 297 297 298 299 301 303 304 306 308 310 313 315 320 327 330
299 299 297 296 294 293 294 293 292 292 292 292 293 294 294 294 295 295 295 297 298 299 300 301 303 305 308 310 312 315 323 328
297 296 295 295 294 293 292 292 292 291 291 291 292 292 292 293 293 293 294 295 295 296 297 298 300 302 305 308 312 314 317 325
294 293 293 293 293 292 291 291 291 291 290 291 291 291 291 291 291 292 292 292 293 294 294 296 298 300 304 308 313 315 317 323
295 293 292 292 292 292 290 290 290 290 290 290 290 290 290 290 289 289 289 289 290 291 293 294 296 299 301 303 308 316 317 323
293 292 291 291 291 290 289 289 289 289 289 289 289 289 289 289 288 287 287 288 288 289 290 292 293 295 297 299 304 315 318 319
292 291 291 291 290 289 288 288 288 288 289 289 289 289 288 288 287 287 286 286 287 287 288 289 290 291 293 294 297 306 318 321
291 290 290 289 289 288 287 287 287 288 288 288 288 288 288 288 287 287 286 286 286 286 287 287 288 289 290 291 293 300 308 320
291 290 289 289 288 287 287 287 287 287 287 287 286 286 287 287 286 285 285 284 285 285 286 287 287 288 288 289 291 298 304 312
290 289 289 288 288 287 287 287 286 286 286 286 285 285 285 285 285 285 284 284 284 284 284 286 286 287 286 287 289 291 294 299
289 288 288 288 288 287 287 286 285 285 285 285 284 284 284 283 284 283 284 283 283 283 283 284 285 286 286 286 287 288 289 290
288 288 288 288 287 287 287 286 285 284 283 283 282 282 282 282 282 282 281 282 282 282 282 282 284 286 286 285 285 286 286 287
287 287 286 286 286 287 286 286 285 284 283 283 282 280 280 280 280 280 280 280 280 280 281 281 282 284 285 285 285 284 284 285

GFSFLT1_925_thetae_120.txt.gz
Theta_e
307 305 306 305 305 306 306 306 307 308 309 311 312 311 311 311 312 312 312 312 313 314 314 316 318 322 332 334 337 337 335 337
303 302 301 302 302 302 301 302 303 304 306 307 308 309 309 310 310 310 310 311 311 311 312 313 313 314 317 328 335 334 332 332
303 300 299 297 297 297 297 298 298 300 300 301 303 305 305 306 306 306 307 308 309 310 310 310 311 312 313 316 326 335 333 332
302 300 299 298 296 296 295 295 296 296 298 300 303 302 302 301 303 304 304 305 305 306 307 308 309 310 311 313 315 320 333 334
301 299 297 295 296 296 295 294 296 293 294 295 297 297 298 298 298 299 300 301 303 303 305 306 306 307 309 311 313 314 319 330
299 299 297 295 294 294 294 294 293 293 293 293 294 295 296 296 296 296 297 298 299 300 302 303 305 306 308 309 311 312 315 319
298 296 296 295 294 293 293 292 292 293 292 292 292 293 294 295 295 295 295 296 297 298 299 300 301 303 305 307 310 312 313 315
297 296 294 294 293 292 292 291 291 291 291 291 292 292 292 293 293 293 294 294 294 295 295 297 298 299 302 303 305 308 311 313
295 294 293 293 293 292 291 290 290 291 291 291 291 291 291 291 291 291 291 291 291 292 293 294 296 297 299 301 304 307 310 313
294 294 293 292 292 291 289 289 290 290 290 290 290 290 290 289 289 289 289 289 290 290 291 292 294 295 296 299 301 304 308 312
294 293 292 291 291 289 289 289 289 289 289 290 289 289 289 288 288 287 287 288 288 288 289 290 291 292 293 294 296 298 301 307
292 291 291 291 289 289 288 288 288 288 289 289 289 288 288 288 288 287 287 287 287 287 288 289 290 290 291 291 293 295 297 303
291 290 290 290 288 288 288 288 288 288 288 287 287 287 287 287 286 285 285 285 286 286 287 288 288 288 289 289 291 292 295 299
289 289 289 289 288 288 288 287 287 287 287 286 286 286 286 286 285 284 284 284 285 285 286 287 288 288 288 288 290 291 293 296
289 289 289 289 288 288 287 287 286 286 286 285 285 285 284 284 284 284 283 283 283 283 284 286 287 287 287 287 288 289 289 290
289 288 288 288 287 287 286 285 284 284 284 283 283 283 283 282 282 282 281 281 281 281 283 284 285 286 286 286 286 286 287 287
288 288 288 288 288 287 286 285 284 283 283 282 281 281 281 281 281 281 281 280 280 280 281 282 284 285 285 285 285 285 285 285
288 288 287 287 287 287 286 285 284 283 283 282 280 280 279 279 280 280 280 279 279 280 280 281 282 283 284 285 284 284 284 283
287 287 286 286 286 286 286 285 283 283 282 281 280 279 279 279 279 279 279 279 279 279 279 279 280 281 283 283 283 283 283 283

GFSFLT1_925_thetae_123.txt.gz
Theta_e
302 301 300 300 299 299 299 300 301 304 306 307 308 308 309 309 308 310 311 312 313 313 314 316 317 318 323 329 332 335 338 338
302 300 299 299 298 298 297 297 298 299 300 302 305 305 306 304 304 305 307 308 310 311 311 312 313 314 316 318 325 331 335 337
300 298 297 298 298 297 297 296 296 297 298 299 300 301 303 303 301 302 302 303 305 306 308 308 308 310 313 315 317 322 332 333
300 298 297 296 296 295 295 295 294 294 296 298 299 299 300 301 300 301 301 301 302 303 305 307 307 307 309 312 314 318 323 331
299 298 297 296 295 295 295 294 293 294 294 295 297 296 296 297 298 298 299 299 300 301 302 303 303 305 307 308 310 312 316 321
299 299 298 297 295 295 293 294 293 293 293 294 294 294 294 295 296 297 297 298 298 298 298 299 300 301 303 306 308 310 311 314
298 297 296 296 294 293 294 293 292 292 293 292 292 292 293 293 293 294 294 295 295 295 295 296 297 298 299 301 303 306 310 312
297 296 295 294 294 292 292 292 292 291 292 292 291 292 292 292 291 291 292 292 293 293 293 294 295 296 297 299 300 303 305 308
296 295 294 293 292 291 291 291 291 291 291 291 291 291 291 290 290 290 290 290 291 291 291 292 292 294 295 296 298 301 304 306
295 294 293 292 291 291 290 290 290 290 290 291 290 290 290 290 289 289 289 289 290 290 290 291 291 292 292 294 295 298 299 301
294 293 292 292 290 290 289 289 290 289 289 289 289 289 289 288 288 287 287 288 288 288 289 290 290 291 291 291 293 294 296 298
293 292 291 291 290 289 289 289 289 289 288 288 288 287 287 287 286 286 286 286 286 287 288 289 289 289 289 290 291 294 294 297
292 291 290 290 289 289 289 288 288 288 288 287 287 287 287 286 286 285 285 285 285 285 286 287 287 288 288 289 291 291 292 293
291 291 290 289 289 288 288 287 287 287 286 286 286 286 285 285 285 285 284 284 284 284 285 285 287 287 287 288 288 289 289 290
291 290 289 289 288 288 287 286 285 285 284 284 284 284 284 284 284 283 283 283 283 283 283 284 285 285 286 286 287 287 288 287
290 290 289 288 287 287 286 285 285 284 284 283 282 282 282 282 282 282 282 282 282 282 282 282 284 284 285 285 286 286 286 286
290 289 288 288 287 287 286 285 285 284 283 282 281 281 281 280 280 281 280 280 281 281 281 281 282 283 284 283 284 285 285 285
289 288 288 287 287 286 286 285 284 283 282 281 281 280 280 280 280 280 279 279 279 280 280 280 281 281 282 282 282 283 283 283
289 287 287 286 286 287 286 284 283 283 282 281 280 280 279 279 279 278 278 279 278 278 278 279 279 280 281 280 281 281 281 281

GFSFLT1_925_thetae_126.txt.gz
Theta_e
306 306 305 305 305 303 301 300 301 303 305 308 310 312 312 311 312 311 311 312 314 315 318 320 320 323 327 330 330 333 336 339
305 303 303 304 304 303 301 300 298 299 302 304 306 307 311 310 308 308 308 309 310 312 314 316 317 318 321 323 325 329 334 335
305 304 303 302 302 301 300 299 298 298 298 299 303 306 307 307 306 306 306 306 307 308 308 309 310 312 314 317 320 323 326 332
305 303 303 303 302 302 301 299 298 297 298 299 301 303 304 304 304 304 303 304 303 303 303 304 306 307 310 311 312 314 320 323
303 304 302 302 300 300 300 299 299 298 298 298 300 303 303 301 302 301 301 301 300 300 300 301 303 303 305 306 309 311 313 316
303 301 299 298 297 296 296 298 297 297 297 296 298 298 299 300 299 299 298 298 298 298 298 298 299 300 301 302 303 305 308 312
301 299 298 298 298 298 297 297 296 296 294 295 295 295 296 296 296 296 296 296 296 296 295 296 297 298 299 299 300 302 304 307
300 299 300 299 297 297 297 297 296 295 294 294 293 293 294 294 293 293 293 292 293 294 294 294 295 295 296 297 298 301 303 305
300 298 298 296 296 294 294 295 295 294 293 293 293 292 292 292 291 291 291 292 292 291 292 293 293 294 295 295 297 299 302 303
299 298 296 295 295 293 292 293 293 292 292 292 291 291 291 290 290 290 290 290 290 290 290 291 291 292 293 293 295 296 297 299
299 298 296 294 293 292 292 291 291 291 291 290 290 290 289 289 289 289 289 289 288 288 289 290 290 290 291 292 293 294 295 295
300 297 296 294 293 292 291 291 290 290 290 290 289 289 289 288 288 288 288 288 288 288 288 289 289 289 289 290 291 291 292 292
298 296 295 293 292 291 291 290 290 289 289 289 289 288 288 288 288 287 287 287 287 287 287 288 288 289 289 289 289 289 290 289
298 296 294 292 291 290 290 289 289 289 288 288 288 288 288 287 287 287 286 287 287 286 286 287 287 288 288 288 288 288 288 288
298 295 293 291 290 290 290 289 289 288 287 287 287 286 286 286 286 286 286 286 286 286 286 286 287 286 286 287 288 288 288 287
296 295 292 290 289 289 289 289 288 288 287 286 285 285 284 284 284 284 284 285 284 284 285 286 286 284 283 284 287 287 287 286
295 293 291 290 289 289 289 288 287 286 285 285 284 284 284 283 284 284 283 283 283 283 283 284 284 283 281 282 285 285 285 284
293 292 290 289 289 289 289 288 287 285 284 284 283 283 282 282 282 282 282 282 281 281 281 282 281 281 280 280 283 283 283 283
292 290 289 289 288 288 288 287 286 285 284 282 282 282 281 281 281 281 281 281 280 280 279 280 280 279 279 279 281 282 282 281

GFSFLT1_925_thetae_132.txt.gz
Theta_e
312 311 310 310 309 309 308 307 307 307 307 308 311 312 311 310 311 310 310 311 311 312 314 314 315 316 316 318 318 320 322 325
312 311 310 310 309 308 307 307 306 307 307 307 308 309 310 308 307 308 308 308 307 306 307 308 308 309 311 312 312 313 315 318
312 311 310 309 307 307 307 306 305 305 305 306 308 308 309 308 307 306 305 305 305 304 303 304 304 306 307 307 308 309 311 313
312 310 308 306 306 305 305 304 304 303 303 304 305 307 307 307 307 306 305 304 303 302 301 302 302 303 303 304 305 305 307 308
311 308 306 306 305 304 304 304 303 302 301 301 302 302 303 302 303 302 303 303 301 300 299 299 300 300 301 301 302 302 303 305
309 306 306 305 304 304 304 303 302 301 300 299 299 299 299 299 298 298 298 298 298 296 296 297 297 298 298 298 299 300 301 303
307 306 306 304 303 302 301 302 300 299 298 298 297 297 297 297 296 296 294 295 294 294 293 294 295 295 296 296 297 298 299 301
307 307 305 303 302 300 300 300 299 297 296 296 295 295 295 295 294 293 293 293 292 292 292 292 292 293 294 294 295 297 297 297
308 306 305 302 301 298 298 298 298 296 295 295 294 293 293 293 292 292 292 291 291 291 291 291 292 292 292 293 294 294 294 295
307 305 303 302 299 297 296 296 296 295 294 294 293 293 292 292 291 291 291 290 290 290 290 291 291 291 291 292 292 291 291 291
306 305 303 300 298 296 295 295 294 294 293 293 293 292 292 291 291 290 290 289 289 290 290 290 289 289 291 290 291 290 290 289
306 305 302 300 298 296 295 294 294 293 293 292 292 292 292 291 290 290 290 289 289 289 290 289 288 288 289 291 290 289 289 289
306 305 302 299 298 296 294 294 294 293 293 293 293 293 292 291 290 290 289 289 289 289 289 288 287 286 287 289 290 290 289 289
307 304 301 299 297 296 294 294 294 294 294 293 292 291 290 290 289 289 288 288 288 288 287 286 284 284 285 287 288 288 288 287
307 304 301 298 296 295 294 294 293 293 293 292 291 290 289 289 288 288 287 287 286 287 285 283 282 282 283 285 287 286 285 285
307 304 300 297 296 295 294 294 293 293 292 290 289 288 288 287 287 286 286 285 285 285 284 282 280 280 282 283 285 284 284 282
306 304 299 296 295 294 294 293 292 291 290 289 288 287 286 285 285 285 284 283 282 282 282 281 279 279 281 282 284 284 283 281
305 302 298 296 295 294 293 292 291 289 288 287 286 285 284 284 284 283 282 282 281 280 280 280 278 278 279 281 283 282 281 280
303 299 296 294 293 293 292 291 289 288 286 285 285 284 284 283 282 282 282 281 280 280 279 278 278 278 278 279 281 281 281 279